Volver al catálogo

CZ-6A DEB

ActivoPO
NORAD 54294·DEBRIS·🇨🇳 China

Lanzado Nov 11, 2022 desde Taiyuan Satellite Launch Center

Loading…

Próximos Pases (próximas 24 horas)

TLE

ActualizadoSource: Space-Track

Época: Sep 14, 2026, 06:41 UTC

1 54294U 22151AM  26257.27872570  .00003920  00000-0  55438-3 0  9997
2 54294  98.7596  10.8324 0109690 297.8006  61.2115 14.73717721204153

Sigue CZ-6A DEB en tiempo real con AllMySat

Download on the App Store